Regional Weather Roundup
Issued by NWS

Home | Current Version | Previous Version | Graphics & Text | Print | Product List | Glossary Off
Versions: 1 2 3 4 5 6 7 8 9 10 11 12 13 14 15 16 17 18 19 20 21 22 23 24 25 26 27 28 29 30 31 32 33 34 35 36 37 38 39 40 41 42 43 44 45 46 47 48 49 50

000
ASUS43 KMPX 280010
RWRMN
WEATHER ROUNDUP FOR MINNESOTA
NATIONAL WEATHER SERVICE TWIN CITIES/CHANHASSEN MN
700 PM CDT MON MAR 27 2017


NOTE: "FAIR" INDICATES FEW OR NO CLOUDS BELOW 12,000 FEET WITH NO
SIGNIFICANT WEATHER AND/OR OBSTRUCTIONS TO VISIBILITY. N/A MEANS
CURRENT SKY AND/OR WEATHER CONDITIONS ARE NOT AVAILABLE.

MNZ060>063-068>070-280100-
   Twin Cities Metro

CITY           SKY/WX    TMP DP  RH WIND       PRES   REMARKS
TWIN CITIES    PTCLDY    53  37  54 SE6       29.96R
6HR MIN TEMP:  53; 6HR MAX TEMP:  61;

ST PAUL        PTCLDY    51  38  60 S8        29.96R
CRYSTAL        CLEAR     55  31  39 E9        29.94R
BLAINE         PTCLDY    57  34  41 NE9       29.95R
LAKEVILLE      CLEAR     48  39  71 SE3       29.96R
EDEN PRAIRIE   PTCLDY    54  36  50 SE9       29.94R
6HR MIN TEMP:  54; 6HR MAX TEMP:  60;

SOUTH ST PAUL  PTCLDY    51  37  57 S5        29.96R
LAKE ELMO      FAIR      52  37  58 SE6       29.97R
$$
MNZ001>005-007-008-013>017-022>024-027-028-280100-
   Northwest Minnesota

CITY           SKY/WX    TMP DP  RH WIND       PRES   REMARKS
BEMIDJI        CLEAR     55  25  31 CALM      29.97R
HALLOCK        MOCLDY    43  39  87 N3        30.02S
ROSEAU         MOCLDY    46  39  76 W7        30.01R
WARROAD        PTCLDY    41  36  81 CALM      30.02R
THIEF RVR FALL CLEAR    N/A N/A N/A NW9       30.01S
CROOKSTON      MOCLDY    43  41  93 NE6       30.01S FOG
FOSSTON        CLEAR     50  43  76 NW9       29.99R
DETROIT LAKES  CLEAR     54  39  58 N7        29.97R
MOORHEAD       CLEAR     54  45  71 N7        29.97S
PARK RAPIDS    CLEAR     57  29  34 N3        29.95R
MAHNOMEN       FAIR      52  43  71 N9        29.97S
$$
MNZ006-009>011-018-025>026-280100-
   North Central Minnesota

CITY           SKY/WX    TMP DP  RH WIND       PRES   REMARKS
BAUDETTE       PTCLDY    45  32  60 N7        29.99R
FLAG ISLAND    CLOUDY    43  30  61 CALM      30.01R
INTL FALLS     CLEAR     52  22  30 CALM      29.98R
6HR MIN TEMP:  50; 6HR MAX TEMP:  54;

WASKISH        CLEAR     45  34  65 W7        29.98S
BIG FORK       CLEAR     55  25  30 CALM      29.97R
LONGVILLE      CLEAR     54  28  37 NW3       29.97R
GRAND RAPIDS   CLEAR     53  29  39 CALM      29.99R
CRANE LAKE     CLEAR     48  27  43 CALM      29.99S
ORR            CLEAR     52  25  35 CALM      29.95S
COOK           CLEAR     54  25  32 CALM      29.98R
WALKER         FAIR      51  29  42 CALM      29.97S
$$
MNZ012-019>021-037-280100-
   Northeast Minnesota

CITY           SKY/WX    TMP DP  RH WIND       PRES   REMARKS
DULUTH         PTCLDY    44  34  67 SE7       29.98R
6HR MIN TEMP:  44; 6HR MAX TEMP:  51;

ELY            CLEAR     52  19  28 CALM      29.97R
HIBBING        CLEAR     53  25  33 CALM      29.96S
EVELETH        CLEAR     55  19  25 CALM      29.98S
DULUTH HARBOR  CLEAR     39  34  81 CALM      30.01S
TWO HARBORS    CLEAR     46  36  66 CALM      29.97S
SILVER BAY     CLEAR     45  32  61 SE3       29.98R
GRAND MARAIS     N/A     38  34  85 SW5       30.00R
G MARAIS ARPRT CLEAR     45  28  53 CALM      29.98R
$$
MNZ029>031-032-039>041-046>048-054>057-064-280100-
   West Central Minnesota

CITY           SKY/WX    TMP DP  RH WIND       PRES   REMARKS
FERGUS FALLS   PTCLDY    55  39  54 W6        29.98S
WHEATON        CLEAR     57  34  41 NE5       29.98R
MORRIS         CLEAR     57  34  41 SE3       29.95S
ALEXANDRIA     CLEAR     55  34  45 CALM      29.96R
ELBOW LAKE     FAIR      54  34  47 SE3       29.96S
WADENA         CLEAR     55  36  47 CALM      29.95S
GLENWOOD       CLEAR     54  36  50 E3        29.97R
APPLETON       CLEAR     57  37  47 CALM      29.96R
BENSON         CLEAR     57  28  33 SE5       29.98R
ORTONVILLE     CLEAR     55  36  47 CALM      29.96R
MADISON        CLEAR     57  37  47 CALM      29.96R
WILLMAR        FAIR      55  36  47 E6        29.98R
$$
MNZ033>034-036-042>043-049>051-058-059-280100-
   Central Minnesota

CITY           SKY/WX    TMP DP  RH WIND       PRES   REMARKS
ST CLOUD       CLEAR     55  36  48 NE5       29.96R
6HR MIN TEMP:  49; 6HR MAX TEMP:  57;

SAUK CENTRE    FAIR      53  36  53 CALM      29.97R
PAYNESVILLE      N/A     53  35  51 N8        29.97R
AITKIN         CLEAR     57  27  30 CALM      29.95R
PINE RIVER     CLEAR     55  32  41 N6        30.00R
BRAINERD       CLEAR     55  31  39 CALM      29.96S
STAPLES        CLEAR     55  34  44 CALM      29.95S
LONG PRAIRIE   FAIR      52  36  54 CALM      29.96R
LITTLE FALLS   PTCLDY    52  34  50 CALM      29.97R
LITCHFIELD     CLEAR     55  37  50 E6        29.96S
BUFFALO        CLEAR     55  34  46 N3        29.96S
MAPLE LAKE     CLEAR     55  40  57 N3        29.97R
HUTCHINSON     PTCLDY    55  39  54 N5        29.97R
$$
MNZ037-044-045-052-053-280100-
   East Central Minnesota

CITY           SKY/WX    TMP DP  RH WIND       PRES   REMARKS
PRINCETON      CLEAR     55  36  47 CALM      29.97R
MORA           CLEAR     54  34  47 CALM      29.98R
CAMBRIDGE      CLEAR     57  39  51 CALM      29.94S
RUSH CITY      CLEAR     53  37  54 N5        29.96R
MOOSE LAKE     CLEAR     54  34  47 CALM      29.96R
CLOQUET        CLEAR     48  32  53 E7        29.98R
MCGREGOR       CLEAR     54  32  43 CALM      29.97R
$$
MNZ071>073-080-081-089-090-097-098-280100-
   Southwest Minnesota

CITY           SKY/WX    TMP DP  RH WIND       PRES   REMARKS
MONTEVIDEO     CLEAR     57  37  47 CALM      29.98R
GRANITE FALLS  CLEAR     58  36  42 NE5       29.97R
CANBY          CLOUDY    55  39  54 CALM      29.97R
MARSHALL       CLOUDY    55  37  50 CALM      29.96R
REDWOOD FALLS  CLEAR     57  34  41 MISG      29.95R
OLIVIA         CLEAR     55  34  44 E3        29.95R
PIPESTONE      CLEAR     55  34  44 E6        29.94R
WINDOM         CLEAR     52  37  58 E3        29.96R
WORTHINGTON    CLEAR     50  39  66 E5        29.97R
JACKSON        PTCLDY    50  37  62 NE6       29.97R
TRACY          CLEAR     55  40  56 CALM      29.96R
SLAYTON        PTCLDY    52  38  59 E6        29.96R
$$
MNZ065>067-074>077-082>085-091>093-280100-
   South Central Minnesota

CITY           SKY/WX    TMP DP  RH WIND       PRES   REMARKS
MANKATO        CLEAR     54  36  50 E6        29.95
NEW ULM        CLEAR     55  34  44 NE5       29.95R
ST JAMES       CLEAR     54  39  58 CALM      29.96S
FAIRMONT       PTCLDY    50  41  71 NE5       29.97R
GLENCOE        CLEAR     56  38  50 N3        29.95R
FARIBAULT      CLOUDY    52  39  62 NE5       29.96S
OWATONNA       MOCLDY    48  37  66 NE5       29.96R
WASECA         PTCLDY    50  41  71 E5        29.96S
ALBERT LEA     CLEAR     48  37  66 NE9       29.95S
$$
MNZ078>079-086>088-094>096-280100-
   Southeast Minnesota

CITY           SKY/WX    TMP DP  RH WIND       PRES   REMARKS
ROCHESTER      CLOUDY    44  39  82 NE5       29.96R
6HR MIN TEMP:  42; 6HR MAX TEMP:  45;

RED WING       CLOUDY    50  36  57 CALM      29.96R
STANTON        PTCLDY    50  39  66 E5        29.95R
DODGE CENTER   CLOUDY    46  37  71 N6        29.95S
WINONA         CLOUDY    45  37  76 N3        29.98R
AUSTIN         CLOUDY    46  39  76 NE5       29.95R
PRESTON        CLOUDY    43  38  82 N7        29.96R
$$
ABBREVIATIONS USED IN REMARKS
   TC - TEMPERATURES IN CELSIUS
  WCI - WIND CHILL INDEX
   HX - HEAT INDEX
  VSB - VISIBILITY
$$




USA.gov is the U.S. government's official web portal to all federal, state and local government web resources and services.